Time,TemperatureF,DewpointF,PressureIn,WindDirection,WindDirectionDegrees,WindSpeedMPH,WindSpeedGustMPH,Humidity,HourlyPrecipIn,Conditions,Clouds,dailyrainin,SolarRadiationWatts/m^2,SoftwareType,DateUTC
2013-02-08 00:02:00,40.0,39.0,29.84,NE,38,3.0,12.0,98,0.01,,,0.48,0.000000,,2013-02-08 05:02:00,
2013-02-08 00:10:00,40.0,39.0,29.82,NE,52,3.0,19.0,98,0.00,,,0.48,0.000000,,2013-02-08 05:10:00,
2013-02-08 00:32:00,40.0,39.0,29.82,NE,52,3.0,19.0,98,0.00,,,0.48,0.000000,,2013-02-08 05:32:00,
2013-02-08 00:42:00,40.0,39.0,29.82,NE,52,3.0,19.0,98,0.00,,,0.48,0.000000,,2013-02-08 05:42:00,
2013-02-08 00:52:00,40.0,39.0,29.82,NE,52,3.0,19.0,98,0.00,,,0.48,0.000000,,2013-02-08 05:52:00,
2013-02-08 01:02:00,40.0,39.0,29.82,NE,52,3.0,19.0,98,0.00,,,0.48,0.000000,,2013-02-08 06:02:00,
2013-02-08 01:10:00,40.0,39.0,29.79,ENE,57,3.0,11.0,98,0.00,,,0.48,0.000000,,2013-02-08 06:10:00,
2013-02-08 01:32:00,40.0,39.0,29.79,ENE,57,3.0,11.0,98,0.00,,,0.48,0.000000,,2013-02-08 06:32:00,
2013-02-08 01:42:00,40.0,39.0,29.79,ENE,57,3.0,11.0,98,0.00,,,0.48,0.000000,,2013-02-08 06:42:00,
2013-02-08 01:52:00,40.0,39.0,29.79,ENE,57,3.0,11.0,98,0.00,,,0.48,0.000000,,2013-02-08 06:52:00,
2013-02-08 02:01:00,40.0,39.0,29.79,ENE,57,3.0,11.0,98,0.00,,,0.48,0.000000,,2013-02-08 07:01:00,
2013-02-08 02:10:00,38.0,37.0,29.79,NNE,32,2.0,11.0,98,0.00,,,0.48,0.000000,,2013-02-08 07:10:00,
2013-02-08 02:32:00,38.0,37.0,29.79,NNE,32,2.0,11.0,98,0.00,,,0.48,0.000000,,2013-02-08 07:32:00,
2013-02-08 02:42:00,38.0,37.0,29.79,NNE,32,2.0,11.0,98,0.00,,,0.48,0.000000,,2013-02-08 07:42:00,
2013-02-08 02:52:00,38.0,37.0,29.79,NNE,32,2.0,11.0,98,0.00,,,0.48,0.000000,,2013-02-08 07:52:00,
2013-02-08 03:01:00,38.0,37.0,29.79,NNE,32,2.0,11.0,98,0.00,,,0.48,0.000000,,2013-02-08 08:01:00,
2013-02-08 03:10:00,38.0,37.0,29.78,ENE,58,2.0,9.0,98,0.00,,,0.48,0.000000,,2013-02-08 08:10:00,
2013-02-08 03:32:00,38.0,37.0,29.78,ENE,58,2.0,9.0,98,0.00,,,0.48,0.000000,,2013-02-08 08:32:00,
2013-02-08 03:42:00,38.0,37.0,29.78,ENE,58,2.0,9.0,98,0.00,,,0.48,0.000000,,2013-02-08 08:42:00,
2013-02-08 03:52:00,38.0,37.0,29.78,ENE,58,2.0,9.0,98,0.00,,,0.48,0.000000,,2013-02-08 08:52:00,
2013-02-08 04:03:00,38.0,37.0,29.78,ENE,58,2.0,9.0,98,0.00,,,0.48,0.000000,,2013-02-08 09:03:00,
2013-02-08 04:10:00,38.0,38.0,29.78,West,270,2.0,11.0,99,0.00,,,0.48,0.000000,,2013-02-08 09:10:00,
2013-02-08 04:32:00,38.0,38.0,29.78,West,270,2.0,11.0,99,0.00,,,0.48,0.000000,,2013-02-08 09:32:00,
2013-02-08 04:42:00,38.0,38.0,29.78,West,270,2.0,11.0,99,0.00,,,0.48,0.000000,,2013-02-08 09:42:00,
2013-02-08 04:52:00,38.0,38.0,29.78,West,270,2.0,11.0,99,0.00,,,0.48,0.000000,,2013-02-08 09:52:00,
2013-02-08 05:01:00,38.0,38.0,29.78,West,270,2.0,11.0,99,0.00,,,0.48,0.000000,,2013-02-08 10:01:00,
2013-02-08 05:10:00,40.0,40.0,29.77,WSW,238,1.0,3.0,99,0.00,,,0.48,0.000000,,2013-02-08 10:10:00,
2013-02-08 05:32:00,40.0,40.0,29.77,WSW,238,1.0,3.0,99,0.00,,,0.48,0.000000,,2013-02-08 10:32:00,
2013-02-08 05:42:00,40.0,40.0,29.77,WSW,238,1.0,3.0,99,0.00,,,0.48,0.000000,,2013-02-08 10:42:00,
2013-02-08 05:52:00,40.0,40.0,29.77,WSW,238,1.0,3.0,99,0.00,,,0.48,0.000000,,2013-02-08 10:52:00,
2013-02-08 06:02:00,40.0,40.0,29.77,WSW,238,1.0,3.0,99,0.00,,,0.48,0.000000,,2013-02-08 11:02:00,
2013-02-08 06:10:00,40.0,40.0,29.77,WNW,287,1.0,3.0,99,0.00,,,0.48,0.000000,,2013-02-08 11:10:00,
2013-02-08 06:32:00,40.0,40.0,29.77,WNW,287,1.0,3.0,99,0.00,,,0.48,0.000000,,2013-02-08 11:32:00,
2013-02-08 06:42:00,40.0,40.0,29.77,WNW,287,1.0,3.0,99,0.00,,,0.48,0.000000,,2013-02-08 11:42:00,
2013-02-08 06:53:00,40.0,40.0,29.77,WNW,287,1.0,3.0,99,0.00,,,0.48,0.000000,,2013-02-08 11:53:00,
2013-02-08 07:02:00,40.0,40.0,29.77,WNW,287,1.0,3.0,99,0.00,,,0.48,0.000000,,2013-02-08 12:02:00,
2013-02-08 07:10:00,40.0,40.0,29.77,SW,218,2.0,3.0,99,0.00,,,0.48,0.000000,,2013-02-08 12:10:00,
2013-02-08 07:33:00,40.0,40.0,29.77,SW,218,2.0,3.0,99,0.00,,,0.48,0.000000,,2013-02-08 12:33:00,
2013-02-08 07:42:00,40.0,40.0,29.77,SW,218,2.0,3.0,99,0.00,,,0.48,0.000000,,2013-02-08 12:42:00,
2013-02-08 07:52:00,40.0,40.0,29.77,SW,218,2.0,3.0,99,0.00,,,0.48,0.000000,,2013-02-08 12:52:00,
2013-02-08 08:02:00,40.0,40.0,29.77,SW,218,2.0,3.0,99,0.00,,,0.48,0.000000,,2013-02-08 13:02:00,
2013-02-08 08:10:00,40.0,40.0,29.79,SSE,159,2.0,4.0,99,0.00,,,0.48,12.000000,,2013-02-08 13:10:00,
2013-02-08 08:32:00,40.0,40.0,29.79,SSE,159,2.0,4.0,99,0.00,,,0.48,12.000000,,2013-02-08 13:32:00,
2013-02-08 08:43:00,40.0,40.0,29.79,SSE,159,2.0,4.0,99,0.00,,,0.48,12.000000,,2013-02-08 13:43:00,
2013-02-08 08:52:00,40.0,40.0,29.79,SSE,159,2.0,4.0,99,0.00,,,0.48,12.000000,,2013-02-08 13:52:00,
2013-02-08 09:02:00,40.0,40.0,29.79,SSE,159,2.0,4.0,99,0.00,,,0.48,12.000000,,2013-02-08 14:02:00,
2013-02-08 09:42:00,46.0,42.0,29.79,SSW,195,4.0,9.0,87,0.00,,,0.48,194.000000,,2013-02-08 14:42:00,
2013-02-08 09:52:00,46.0,42.0,29.79,SSW,195,4.0,9.0,87,0.00,,,0.48,194.000000,,2013-02-08 14:52:00,
2013-02-08 10:32:00,50.0,42.0,29.80,SW,225,5.0,15.0,75,0.00,,,0.48,334.000000,,2013-02-08 15:32:00,
2013-02-08 11:33:00,54.0,44.0,29.80,SW,222,4.0,17.0,70,-99.99,,,0.48,551.000000,,2013-02-08 16:33:00,
2013-02-08 12:10:00,52.0,42.0,29.80,NW,322,3.0,11.0,69,-99.99,,,0.48,200.000000,,2013-02-08 17:10:00,
2013-02-08 12:33:00,52.0,42.0,29.80,NW,322,3.0,11.0,69,-99.99,,,0.48,200.000000,,2013-02-08 17:33:00,
2013-02-08 12:42:00,52.0,42.0,29.80,NW,322,3.0,11.0,69,-99.99,,,0.48,200.000000,,2013-02-08 17:42:00,
2013-02-08 12:53:00,52.0,42.0,29.80,NW,322,3.0,11.0,69,-99.99,,,0.48,200.000000,,2013-02-08 17:53:00,
2013-02-08 13:03:00,52.0,42.0,29.80,NW,322,3.0,11.0,69,-99.99,,,0.48,200.000000,,2013-02-08 18:03:00,
2013-02-08 13:10:00,51.0,42.0,29.78,West,262,3.0,11.0,71,0.00,,,0.47,87.000000,,2013-02-08 18:10:00,
2013-02-08 13:44:00,51.0,42.0,29.78,West,262,3.0,11.0,71,0.00,,,0.47,87.000000,,2013-02-08 18:44:00,
2013-02-08 13:53:00,51.0,42.0,29.78,West,262,3.0,11.0,71,0.00,,,0.47,87.000000,,2013-02-08 18:53:00,
2013-02-08 14:02:00,51.0,42.0,29.78,West,262,3.0,11.0,71,0.00,,,0.47,87.000000,,2013-02-08 19:02:00,
2013-02-08 14:10:00,49.0,42.0,29.78,NE,42,4.0,13.0,76,0.00,,,0.45,65.000000,,2013-02-08 19:10:00,
2013-02-08 14:42:00,49.0,42.0,29.78,NE,42,4.0,13.0,76,0.00,,,0.45,65.000000,,2013-02-08 19:42:00,
2013-02-08 14:52:00,49.0,42.0,29.78,NE,42,4.0,13.0,76,0.00,,,0.45,65.000000,,2013-02-08 19:52:00,
2013-02-08 15:02:00,49.0,42.0,29.78,NE,42,4.0,13.0,76,0.00,,,0.45,65.000000,,2013-02-08 20:02:00,
2013-02-08 15:10:00,46.0,36.0,29.80,North,4,5.0,16.0,69,0.00,,,0.43,89.000000,,2013-02-08 20:10:00,
2013-02-08 15:42:00,46.0,36.0,29.80,North,4,5.0,16.0,69,0.00,,,0.43,89.000000,,2013-02-08 20:42:00,
2013-02-08 15:53:00,46.0,36.0,29.80,North,4,5.0,16.0,69,0.00,,,0.43,89.000000,,2013-02-08 20:53:00,
2013-02-08 16:02:00,46.0,36.0,29.80,North,4,5.0,16.0,69,0.00,,,0.43,89.000000,,2013-02-08 21:02:00,
2013-02-08 16:10:00,53.0,30.0,29.81,North,349,5.0,26.0,41,0.01,,,0.36,399.000000,,2013-02-08 21:10:00,
2013-02-08 16:42:00,53.0,30.0,29.81,North,349,5.0,26.0,41,0.01,,,0.36,399.000000,,2013-02-08 21:42:00,
2013-02-08 16:52:00,53.0,30.0,29.81,North,349,5.0,26.0,41,0.01,,,0.36,399.000000,,2013-02-08 21:52:00,
2013-02-08 17:02:00,53.0,30.0,29.81,North,349,5.0,26.0,41,0.01,,,0.36,399.000000,,2013-02-08 22:02:00,
2013-02-08 17:42:00,47.0,21.0,29.83,NNW,344,7.0,24.0,36,0.00,,,0.26,113.000000,,2013-02-08 22:42:00,
2013-02-08 17:52:00,47.0,21.0,29.83,NNW,344,7.0,24.0,36,0.00,,,0.26,113.000000,,2013-02-08 22:52:00,
2013-02-08 18:32:00,43.0,21.0,29.85,NE,43,4.0,21.0,41,0.00,,,0.16,13.000000,,2013-02-08 23:32:00,
2013-02-08 19:10:00,40.0,22.0,29.87,WNW,298,4.0,20.0,49,0.00,,,0.13,0.000000,,2013-02-09 00:10:00,
2013-02-08 19:32:00,40.0,22.0,29.87,WNW,298,4.0,20.0,49,0.00,,,0.13,0.000000,,2013-02-09 00:32:00,
2013-02-08 19:42:00,40.0,22.0,29.87,WNW,298,4.0,20.0,49,0.00,,,0.13,0.000000,,2013-02-09 00:42:00,
2013-02-08 19:52:00,40.0,22.0,29.87,WNW,298,4.0,20.0,49,0.00,,,0.13,0.000000,,2013-02-09 00:52:00,
2013-02-08 20:02:00,40.0,22.0,29.87,WNW,298,4.0,20.0,49,0.00,,,0.13,0.000000,,2013-02-09 01:02:00,
2013-02-08 20:10:00,38.0,25.0,29.89,WNW,294,4.0,17.0,60,0.00,,,-99.99,0.000000,,2013-02-09 01:10:00,
2013-02-08 20:32:00,38.0,25.0,29.89,WNW,294,4.0,17.0,60,0.00,,,-99.99,0.000000,,2013-02-09 01:32:00,
2013-02-08 20:42:00,38.0,25.0,29.89,WNW,294,4.0,17.0,60,0.00,,,-99.99,0.000000,,2013-02-09 01:42:00,
2013-02-08 20:52:00,38.0,25.0,29.89,WNW,294,4.0,17.0,60,0.00,,,-99.99,0.000000,,2013-02-09 01:52:00,
2013-02-08 21:01:00,38.0,25.0,29.89,WNW,294,4.0,17.0,60,0.00,,,-99.99,0.000000,,2013-02-09 02:01:00,
2013-02-08 21:10:00,33.0,26.0,29.92,NE,35,2.0,15.0,74,0.00,,,0.06,0.000000,,2013-02-09 02:10:00,
2013-02-08 21:42:00,33.0,26.0,29.92,NE,35,2.0,15.0,74,0.00,,,0.06,0.000000,,2013-02-09 02:42:00,
2013-02-08 21:53:00,33.0,26.0,29.92,NE,35,2.0,15.0,74,0.00,,,0.06,0.000000,,2013-02-09 02:53:00,
2013-02-08 22:02:00,33.0,26.0,29.92,NE,35,2.0,15.0,74,0.00,,,0.06,0.000000,,2013-02-09 03:02:00,
2013-02-08 22:10:00,32.0,27.0,29.94,SW,225,2.0,9.0,83,0.00,,,0.02,0.000000,,2013-02-09 03:10:00,
2013-02-08 22:32:00,32.0,27.0,29.94,SW,225,2.0,9.0,83,0.00,,,0.02,0.000000,,2013-02-09 03:32:00,
2013-02-08 22:42:00,32.0,27.0,29.94,SW,225,2.0,9.0,83,0.00,,,0.02,0.000000,,2013-02-09 03:42:00,
2013-02-08 22:53:00,32.0,27.0,29.94,SW,225,2.0,9.0,83,0.00,,,0.02,0.000000,,2013-02-09 03:53:00,
2013-02-08 23:03:00,32.0,27.0,29.94,SW,225,2.0,9.0,83,0.00,,,0.02,0.000000,,2013-02-09 04:03:00,
2013-02-08 23:10:00,30.0,27.0,29.96,SSE,168,2.0,5.0,88,0.00,,,0.01,0.000000,,2013-02-09 04:10:00,
2013-02-08 23:32:00,30.0,27.0,29.96,SSE,168,2.0,5.0,88,0.00,,,0.01,0.000000,,2013-02-09 04:32:00,
2013-02-08 23:42:00,30.0,27.0,29.96,SSE,168,2.0,5.0,88,0.00,,,0.01,0.000000,,2013-02-09 04:42:00,
2013-02-08 23:52:00,30.0,27.0,29.96,SSE,168,2.0,5.0,88,0.00,,,0.01,0.000000,,2013-02-09 04:52:00,